SCP
0 0 0 0 0 0 0 0 0 0 0 -0 -0 0 0 0 0 0 0 0 0 0 0 0 0 0 0 0 0 0 0 0 0 0 0 0 0 0 0 0 0 0 0 0 0 0 0 0 0 0 0 0 0 0
0 0 0 0 0 0 0 0 0 0 0 0 -0 0 0 0 0 0 0 0 0 0 0 0 0 0 0 -0 0 0 0 -0 -0 0 0 0 0 -0 -0 0 0 0 0 0 0 0 0 0 0 0 0 0 0 0
0 0 0 0 0 0 0 0 0 0 0 0 -0 -0 0 0 0 0 0 0 0 0 0 0 0 0 0 0 0 0 0 0 0 0 -0 0 0 0 0 0 0 0 0 0 0 0 0 0 0 0 0 0 0 0
0 0 0 0 0 0 0 0 0 0 0 0 0 -0 -0 0 0 0 0 0 0 0 0 0 0 0 0 0 0 -0 0 -0 -0 -0 0 0 0 0 0 0 0 0 0 0 0 0 0 0 0 0 0 0 0 0
0 0 0 0 0 0 0 0 0 0 0 0 0 -0 -0 0 0 0 0 0 0 0 0 0 0 0 0 0 0 0 -0 -0 0 0 0 0 -0 -0 0 0 0 0 0 0 0 0 0 0 0 0 0 0 0 0
0 0 0 0 0 0 0 0 0 0 0 0 -0 -0 -0 0 0 0 0 0 0 0 0 0 0 0 0 0 0 0 0 0 0 0 0 0 -0 -0 0 0 -0 0 0 0 0 0 0 0 0 0 0 0 0 0
0 0 0 0 0 0 0 0 0 0 0 0 0 -0 0 0 0 0 0 0 0 0 0 0 0 0 0 0 0 0 0 0 0 0 0 0 0 0 -0 -0 0 0 0 0 0 0 0 0 0 0 0 0 0 0
0 0 0 0 0 0 0 0 0 0 0 0 0 0 0 0 0 0 0 0 0 0 0 0 0 0 0 0 0 0 0 0 0 0 0 0 0 0 -0 -0 -0 0 0 0 -0 0 0 0 0 0 0 0 0 0
0 0 0 0 0 0 0 0 0 0 0 0 0 0 0 0 0 0 0 -0 0 0 0 0 0 0 0 0 0 0 0 0 0 0 0 0 0 0 0 0 -0 -0 0 0 0 0 0 0 0 0 0 0 0 0
0 0 0 0 0 0 0 0 0 0 0 -0 0 0 0 0 0 0 0 0 0 0 0 0 0 0 0 0 0 0 0 0 0 0 0 0 0 0 0 0 0 -0 0 0 0 0 0 0 0 0 0 0 0 0
0 0 0 0 0 0 0 0 0 0 0 0 0 0 0 0 0 0 0 0 0 0 0 0 0 0 0 0 0 0 0 0 0 0 0 0 0 0 0 -0 -0 -0 -0 0 0 0 0 0 0 -0 0 0 0 0
0 0 0 0 -0 0 0 0 0 0 0 0 0 0 0 0 0 0 0 0 0 0 0 0 0 0 0 0 0 0 0 0 0 0 0 0 0 0 0 -0 -0 -0 -0 -0 0 0 0 0 0 0 -0 0 0 0
0 0 0 0 0 0 0 0 0 0 0 0 0 0 0 0 0 0 0 0 0 0 0 0 0 0 0 0 0 0 0 0 0 0 0 0 0 0 0 0 -0 -0 -0 -0 0 0 0 0 0 0 0 -0 0 0
0 0 0 0 0 0 0 0 0 0 0 0 0 0 0 0 0 0 0 0 0 0 0 0 0 0 0 0 0 0 0 0 0 0 0 0 0 0 0 0 0 -0 0 -0 -0 0 0 0 0 0 0 0 0 0
0 0 -0 0 0 0 0 0 0 0 0 0 0 0 0 0 0 0 0 0 0 0 0 0 0 0 0 0 0 0 0 0 0 0 0 0 -0 -0 0 0 0 0 -0 -0 0 0 0 0 0 0 0 0 0 0
0 0 0 0 0 0 0 0 0 0 0 0 0 0 0 0 0 0 0 0 0 0 0 0 0 0 0 0 0 0 0 0 0 0 0 0 0 -0 -0 -0 -0 0 0 0 0 -0 0 0 0 0 0 0 0 0
0 0 0 0 0 -0 0 0 0 0 0 0 0 0 0 0 0 0 0 0 0 0 0 0 0 0 0 0 0 0 0 0 0 0 0 0 0 0 -0 -0 -0 -0 -0 0 0 -0 -0 0 0 0 0 0 0 0
0 0 0 0 0 0 0 0 0 0 0 0 0 0 0 0 0 0 0 0 0 0 0 0 0 0 0 0 0 0 0 0 0 0 0 0 0 0 0 -0 -0 -0 -0 -0 -0 0 0 -0 -0 0 0 0 0 0
0 0 0 0 0 0 0 0 0 0 0 0 0 0 0 0 0 0 0 0 0 0 0 0 0 0 0 0 0 0 0 0 0 0 0 0 0 0 0 0 -0 -0 -0 -0 -0 -0 -0 0 -0 -0 0 0 0 0
0 0 0 0 0 0 0 0 0 0 0 0 0 0 0 0 0 0 0 0 0 0 0 0 0 0 0 0 0 0 0 0 0 0 0 0 0 0 0 0 -0 -0 -0 -0 -0 -0 -0 -0 -0 0 -0 0 0 0
0 0 0 0 0 0 0 0 0 0 0 0 0 0 0 0 0 0 0 0 0 0 0 0 0 0 0 0 0 0 0 0 0 0 0 0 0 0 0 0 0 -0 -0 -0 -0 -0 -0 -0 -0 -0 -0 -0 0 0
0 0 0 0 0 0 0 0 0 0 0 0 0 0 0 0 0 0 0 0 0 0 0 0 0 0 0 0 0 0 0 0 0 0 0 0 0 0 0 0 0 0 0 0 -0 -0 -0 -0 -0 -0 -0 -0 -0 -0
0 0 0 0 0 0 0 0 0 0 0 0 0 0 0 0 0 0 0 0 0 0 0 0 0 0 0 0 0 0 0 0 0 0 0 0 0 0 0 0 0 0 0 0 0 -0 -0 -0 -0 -0 -0 -0 -0 -0
0 0 0 0 0 0 0 0 0 0 0 0 0 0 0 0 0 0 0 0 0 0 0 0 0 0 0 0 0 0 0 0 0 0 0 0 0 0 0 0 0 0 0 0 0 0 0 -0 -0 -0 -0 -0 -0 -0
0 0 0 0 0 0 0 0 0 0 0 0 0 0 0 0 0 0 0 0 0 0 0 0 0 0 0 0 0 0 0 0 0 0 0 0 0 0 0 0 0 0 0 0 0 0 0 0 0 -0 -0 -0 -0 -0
0 0 0 0 0 0 0 0 0 0 0 0 0 0 0 0 0 0 0 0 0 0 0 0 0 0 0 0 0 0 0 0 0 0 0 0 0 0 0 0 0 0 0 0 0 0 0 0 0 0 0 0 -0 -0
0 0 0 0 0 0 0 0 0 0 0 0 0 0 0 0 0 0 0 0 0 0 0 0 0 0 0 0 0 0 0 0 0 0 0 0 0 0 0 0 0 0 0 0 0 0 0 0 0 0 0 0 0 -0
0 0 0 0 0 0 0 0 0 0 0 0 0 0 0 0 0 0 0 0 0 0 0 0 0 0 0 0 0 0 0 0 0 0 0 0 0 0 0 0 0 0 0 0 0 0 0 0 0 0 0 0 0 0
0 0 0 0 0 0 0 0 0 0 0 0 0 0 0 0 0 0 0 0 0 0 0 0 0 0 0 0 0 0 0 0 0 0 0 0 0 0 0 0 0 0 0 0 0 0 0 0 0 0 0 0 0 0
0 0 0 0 0 0 0 0 0 0 0 0 0 0 0 0 0 0 0 0 0 0 0 0 0 0 0 0 0 0 0 0 0 0 0 0 0 0 0 0 0 0 0 0 0 0 0 0 0 0 0 0 0 0
0 0 0 0 0 0 0 0 0 0 0 0 0 0 0 0 0 0 0 0 0 0 0 0 0 0 0 0 0 0 0 0 0 0 0 0 0 0 0 0 0 0 0 0 0 0 0 0 0 0 0 0 0 0
0 0 0 0 0 0 0 0 0 0 0 0 0 0 0 0 0 0 0 0 0 0 0 0 0 0 0 0 0 0 0 0 0 0 0 0 0 0 0 0 0 0 0 0 0 0 0 0 0 0 0 0 0 0
0 0 0 0 0 0 0 0 0 0 0 0 0 0 0 0 0 0 0 0 0 0 0 0 0 0 0 0 0 0 0 0 0 0 0 0 0 0 0 0 0 0 0 0 0 0 0 0 0 0 0 0 0 0
Wind_Speed_500mb
55 54 57 58 60 63 64 64 63 57 49 64 69 64 43 26 16 25 24 22 25 16 41 31 22 23 24 17 5 15 18 2 6 6 4 5 5 4 7 3 8 9 11 10 8 8 7 44 12 5 13 23 31 34
53 55 58 59 60 63 66 67 66 62 51 60 67 65 44 28 18 21 29 20 22 27 49 62 59 31 34 29 25 9 8 16 8 5 3 6 6 3 7 4 3 4 3 3 7 3 15 27 9 10 20 29 36 40
53 57 60 59 58 62 66 69 70 68 51 58 63 61 47 27 20 21 23 23 27 26 43 17 18 21 13 12 16 12 8 7 6 9 6 5 7 7 6 4 5 2 1 5 6 10 16 15 21 28 32 32 40 42
57 57 61 62 57 59 67 70 71 68 50 61 62 59 47 30 22 23 22 17 19 15 8 15 28 34 18 19 15 25 16 20 23 17 5 5 6 7 4 5 4 4 9 7 4 13 28 13 37 43 54 43 47 49
58 57 57 61 58 60 66 70 72 69 55 66 63 57 44 28 24 24 25 12 14 9 8 23 31 27 33 29 27 21 24 22 3 5 4 5 6 7 4 3 1 2 5 4 4 8 8 34 42 51 45 54 53 56
60 55 57 58 59 59 64 68 76 74 63 68 66 53 38 31 23 18 6 2 8 15 8 8 16 15 36 25 22 15 11 13 5 6 7 10 7 6 7 5 2 13 16 13 11 25 36 50 59 50 43 54 52 53
64 58 58 57 58 53 62 67 77 80 66 70 64 49 33 18 14 6 6 13 15 2 5 10 14 11 27 20 14 12 8 4 6 5 6 6 8 11 5 9 17 28 29 35 33 36 26 17 30 56 49 48 50 48
61 58 56 54 57 55 59 69 76 78 68 69 56 43 21 6 4 6 5 17 5 3 3 3 9 13 16 9 9 15 6 2 1 6 5 6 12 6 5 23 41 41 46 45 28 25 39 46 56 63 48 44 48 46
61 60 57 53 54 58 56 65 73 71 72 63 48 21 4 1 1 9 20 5 6 6 3 4 5 7 18 4 7 8 8 2 6 4 3 8 1 4 15 37 47 53 38 52 51 48 47 46 54 58 48 41 41 45
60 63 59 55 50 53 54 63 63 64 68 51 21 9 3 4 24 12 5 4 8 7 8 6 7 6 5 5 5 10 4 4 5 4 14 3 2 22 40 57 47 54 57 54 46 47 44 46 48 53 47 40 41 44
55 60 57 50 47 50 52 52 58 65 59 45 21 9 14 20 9 5 6 7 7 6 11 11 15 7 5 4 1 2 3 5 4 6 8 6 8 21 53 63 71 67 66 59 52 60 52 54 54 54 48 40 41 42
51 55 53 52 48 45 47 42 54 61 56 48 33 33 17 3 4 5 4 3 7 4 6 5 3 9 4 2 1 2 1 3 2 8 3 5 9 51 55 57 66 71 63 60 51 47 39 48 54 51 48 44 43 42
52 52 52 44 41 37 39 40 51 58 61 29 5 6 5 4 3 7 5 3 4 5 6 2 5 4 3 4 4 1 1 2 6 1 3 5 35 49 59 59 65 60 66 65 67 46 36 30 38 39 44 42 37 41
42 45 49 40 35 34 27 44 51 54 42 7 4 8 7 6 8 8 7 5 8 13 13 11 3 4 4 4 2 3 2 1 3 2 1 6 37 44 54 56 56 53 63 59 65 58 43 19 18 28 33 34 30 37
43 45 47 40 22 25 41 45 49 44 11 9 7 9 12 15 13 9 14 10 15 17 11 3 2 3 2 3 1 3 3 2 1 3 4 22 37 35 47 57 57 49 54 59 52 62 52 37 15 16 15 23 28 35
39 45 38 30 38 42 40 48 44 21 9 12 15 8 12 6 11 12 16 19 13 10 3 2 1 3 2 2 4 5 4 5 3 5 19 29 27 29 40 50 54 56 53 54 55 61 59 47 34 28 20 17 24 31
36 39 41 49 55 49 38 42 20 13 12 11 14 26 21 13 14 14 21 17 10 7 4 4 3 2 3 3 4 6 8 6 12 18 24 23 22 22 33 41 45 51 54 60 59 64 66 60 45 38 34 31 29 25
37 40 40 40 46 42 29 10 11 12 15 25 12 16 29 31 28 33 39 36 18 11 11 7 10 7 6 5 5 7 19 20 20 21 25 29 20 20 26 33 38 42 47 41 46 52 55 71 72 55 41 38 33 30
40 45 43 37 39 26 10 8 11 10 19 17 26 32 31 28 35 37 36 35 27 18 8 12 7 8 7 12 13 14 18 16 14 22 29 21 12 18 23 29 34 40 42 39 31 40 40 51 64 64 52 35 36 35
38 34 31 27 23 8 9 11 11 13 10 9 16 16 14 21 29 31 29 34 33 13 11 10 12 16 21 34 28 21 17 14 12 16 18 11 13 18 20 27 35 37 42 47 40 35 37 45 53 58 58 53 44 43
46 27 30 18 18 20 13 10 14 14 14 13 16 9 10 17 20 25 29 28 18 14 8 24 32 46 45 36 26 24 21 15 13 11 13 16 18 15 16 26 34 32 34 39 45 42 38 43 47 47 48 54 45 40
37 30 37 29 13 13 19 22 17 11 12 14 11 14 13 11 16 14 14 18 17 32 36 36 42 43 47 38 33 31 22 15 12 12 9 14 17 17 16 23 31 33 30 28 36 38 35 35 43 43 43 43 54 49
30 31 22 16 13 14 16 17 13 11 8 6 4 5 6 8 8 7 7 11 13 32 41 48 46 42 35 30 27 33 27 19 11 8 3 9 15 17 16 17 23 31 33 30 31 33 33 31 35 40 40 45 42 46
26 12 11 13 23 10 10 10 14 9 8 5 5 6 6 8 3 6 7 10 29 37 38 32 28 25 24 24 34 39 32 23 17 9 1 10 15 14 16 18 19 25 30 28 24 27 31 30 31 34 26 37 42 46
11 15 13 16 15 11 10 7 8 6 9 11 7 6 5 5 3 5 8 17 20 27 26 20 23 26 25 30 40 38 34 21 13 11 5 10 12 11 14 18 17 22 28 29 26 25 28 29 29 30 30 31 32 36
12 19 19 15 8 12 10 6 9 11 6 9 11 5 2 3 4 9 2 19 19 22 19 17 25 32 33 27 40 36 32 28 25 18 4 3 6 13 16 17 16 20 27 30 32 30 29 27 27 25 26 26 25 29
12 14 18 20 11 7 8 13 10 6 6 9 4 4 3 4 9 1 2 31 29 27 22 17 14 16 23 31 29 24 27 30 25 15 6 2 4 8 12 14 16 17 18 22 28 30 32 32 27 21 20 23 25 27
22 11 17 20 17 17 7 4 4 7 8 8 6 11 9 8 4 2 4 20 36 33 13 3 5 12 19 16 28 29 31 30 24 20 14 6 3 4 7 7 6 8 13 23 25 27 30 27 25 24 20 21 23 23
19 19 17 11 14 14 18 14 13 18 14 13 8 7 7 8 7 16 21 30 34 35 28 9 10 13 18 26 24 27 29 31 31 27 19 12 8 4 4 4 6 8 11 12 17 27 29 27 25 23 22 19 19 20
18 25 19 19 18 20 33 31 23 26 26 23 26 28 27 29 31 29 30 25 31 38 32 22 19 22 24 25 26 32 35 35 31 22 16 13 11 8 6 3 2 3 8 14 19 20 20 22 24 23 20 20 17 15
12 32 20 26 30 51 50 48 48 42 33 30 32 33 35 27 25 22 23 24 25 22 26 13 12 18 20 23 25 29 28 24 21 17 14 11 8 8 10 8 6 6 9 9 8 11 13 15 16 18 17 14 10 13
23 29 21 14 14 23 30 25 24 30 35 38 42 36 29 20 15 4 11 13 7 11 9 8 11 12 17 19 21 21 19 17 12 4 2 5 6 5 4 4 4 1 2 2 7 11 12 12 12 13 13 11 7 3
20 22 25 23 15 13 21 19 9 9 12 8 14 11 9 14 8 5 8 7 4 6 13 20 23 21 19 14 10 9 8 8 6 2 6 5 4 4 5 6 6 4 1 3 2 4 6 8 8 10 11 13 14 13
Wind_Direction_500mb
342 345 344 344 346 348 349 350 349 343 337 346 346 344 340 330 309 299 293 290 268 267 279 277 276 268 271 258 252 318 322 47 299 320 285 327 261 337 290 35 155 166 165 192 201 222 224 360 11 60 358 329 335 333
341 345 344 342 343 344 346 347 347 347 336 342 344 344 337 332 305 283 285 294 285 265 268 290 297 299 279 268 265 239 264 310 286 319 312 305 308 286 295 208 328 153 275 169 229 52 347 346 310 356 340 335 338 329
331 336 341 339 340 342 341 342 343 344 340 339 342 341 334 323 323 279 288 285 287 284 301 299 308 308 308 239 236 236 232 245 271 333 317 305 337 327 337 45 303 274 71 272 245 48 337 331 31 360 346 336 337 335
326 329 334 337 337 342 343 341 341 342 340 340 338 338 332 315 310 309 292 279 265 271 288 283 329 331 319 322 288 241 258 280 286 310 280 276 270 197 305 310 333 288 317 319 294 7 334 252 338 341 337 336 337 339
317 323 330 336 334 335 342 342 341 341 337 341 336 335 326 311 302 310 309 272 255 271 292 295 320 351 347 331 295 277 263 263 295 292 275 291 288 296 276 209 21 320 333 347 336 322 244 285 304 324 327 330 333 336
312 319 324 329 333 333 338 341 340 339 334 339 335 333 323 307 295 315 299 172 335 249 301 303 313 316 7 7 16 36 202 229 202 203 273 292 283 288 313 311 114 342 326 339 283 289 275 277 292 304 312 321 324 330
307 315 320 322 328 332 336 338 338 338 338 338 334 333 326 304 276 267 284 306 331 278 265 295 305 321 359 11 30 25 77 165 203 235 221 281 306 336 281 288 337 330 327 316 301 300 291 295 293 304 313 316 317 323
305 309 315 320 322 327 332 334 336 336 338 337 331 333 329 311 250 236 287 308 269 184 203 277 283 314 351 342 352 351 344 177 20 322 323 331 307 295 285 317 313 316 316 308 299 285 287 293 291 293 301 313 314 322
305 308 311 315 321 324 330 333 336 336 339 339 330 331 314 140 18 282 303 262 199 230 234 212 280 302 345 350 347 336 342 315 344 6 316 318 290 337 278 291 294 296 291 294 298 289 286 285 283 286 292 301 304 310
298 302 308 309 317 322 328 332 335 336 340 343 340 336 231 266 314 300 200 207 216 224 219 247 217 273 309 315 37 349 17 14 360 26 312 287 302 311 329 321 318 325 323 306 285 284 280 278 277 280 283 291 293 298
303 303 305 308 313 315 325 334 335 338 346 352 335 278 266 298 285 226 225 207 179 229 212 231 214 277 250 289 11 59 332 347 10 15 344 333 319 334 338 343 340 335 335 336 318 288 279 269 270 273 280 280 283 288
301 301 304 310 311 311 318 327 333 337 340 324 303 294 307 296 202 234 230 215 215 277 216 225 224 227 247 184 223 194 241 221 158 327 278 346 308 333 338 339 350 348 345 349 344 328 291 277 260 264 271 277 279 281
293 302 307 314 317 309 315 318 326 329 332 322 311 292 277 242 249 218 220 217 255 211 241 261 331 187 192 187 217 215 166 222 336 50 11 278 323 334 340 343 348 349 355 355 354 354 326 289 251 250 265 272 278 283
299 298 303 314 318 313 309 319 325 325 331 285 242 277 213 220 235 200 192 203 235 244 280 297 251 226 174 193 195 248 96 173 88 41 8 278 332 338 340 344 350 347 354 349 353 356 4 330 270 255 261 270 277 280
296 294 295 318 309 310 316 313 318 318 270 243 205 236 231 239 261 248 225 253 259 281 280 268 166 233 163 192 189 258 207 92 230 219 237 313 331 342 343 345 345 344 348 353 353 0 4 12 338 295 293 280 282 282
309 308 307 307 306 313 316 312 316 303 232 223 232 248 230 253 256 228 226 248 274 254 211 124 161 241 222 209 193 183 176 230 235 219 287 317 329 347 354 359 358 358 0 357 4 8 10 9 5 2 344 309 290 291
311 301 315 307 310 320 314 305 290 218 227 226 238 229 238 266 257 263 236 244 242 205 217 162 246 270 123 248 223 192 213 220 249 295 317 326 332 350 359 2 8 11 8 11 12 11 18 23 19 9 359 339 323 327
298 308 311 320 324 327 318 252 234 235 240 237 236 235 234 244 250 262 263 260 253 203 171 207 139 183 216 225 232 222 234 259 286 304 321 330 328 353 9 9 9 15 16 13 20 14 22 29 27 18 360 353 343 330
298 298 305 314 307 308 288 249 233 263 245 258 255 256 257 263 265 267 265 263 242 220 189 174 204 197 209 210 232 246 256 262 283 304 317 328 326 347 2 14 14 15 20 25 21 19 16 21 31 26 21 8 7 359
299 308 314 305 284 239 264 261 235 255 261 256 258 253 238 252 272 271 266 251 237 201 198 209 215 225 220 251 254 246 249 270 285 305 317 331 334 338 348 5 12 11 11 17 19 17 17 21 21 26 27 28 23 17
311 309 326 308 258 227 254 263 246 245 271 259 266 260 261 254 256 257 257 244 194 215 231 232 236 242 249 255 248 226 231 251 274 276 305 323 338 333 337 351 359 7 8 13 15 15 14 18 16 19 21 19 11 7
290 302 307 303 243 224 253 236 236 291 265 261 273 253 254 250 256 251 245 198 234 238 231 240 244 252 250 249 245 222 221 232 256 257 265 329 345 339 329 346 355 0 3 6 14 14 10 18 20 20 21 19 24 26
281 286 281 232 225 229 254 227 227 224 241 244 240 235 226 231 230 209 231 229 252 257 247 247 255 252 252 254 227 208 210 216 217 196 192 353 352 351 346 344 353 356 359 358 2 11 15 19 19 24 25 24 23 22
264 241 233 222 206 253 244 236 216 242 241 240 228 246 221 227 222 232 242 255 268 272 269 253 237 241 234 217 201 202 201 199 172 173 255 346 351 345 348 351 351 359 3 356 358 7 10 13 14 22 21 17 25 27
234 225 215 230 219 227 224 234 215 217 239 204 229 249 231 187 227 247 261 279 282 279 267 260 255 252 234 224 207 200 201 184 168 205 235 358 360 4 6 17 11 6 14 14 16 14 15 17 23 30 25 28 25 25
236 213 203 206 212 211 218 236 215 224 213 205 228 240 176 172 231 249 274 345 332 345 339 295 265 244 224 226 201 192 195 185 192 191 190 359 22 15 22 33 40 36 31 33 30 22 17 16 24 25 20 19 22 29
223 235 218 224 225 225 252 254 257 271 246 217 198 177 152 221 242 241 46 13 357 333 331 312 266 232 215 186 193 180 175 177 183 194 199 229 355 29 42 57 59 52 30 22 17 16 15 13 10 14 4 357 4 19
223 228 209 219 207 215 240 256 246 236 231 210 186 189 185 218 259 266 341 355 357 348 349 54 128 164 189 202 180 178 176 183 192 193 186 189 314 349 5 17 52 27 5 1 14 18 14 8 4 7 0 4 11 17
217 214 204 227 219 215 218 223 234 233 231 198 208 207 230 227 257 316 320 303 303 325 329 278 216 203 192 192 203 198 200 199 194 188 193 194 205 247 293 288 312 335 349 10 6 359 2 4 7 5 2 359 10 18
223 199 209 226 232 240 237 232 246 256 255 249 271 265 265 269 269 273 285 295 301 293 310 287 265 218 200 199 202 197 196 197 199 203 209 204 203 224 238 230 269 333 351 349 347 358 10 11 11 10 8 6 2 13
194 191 221 240 251 254 257 258 258 264 262 255 247 249 257 264 264 270 279 276 280 266 287 294 258 237 226 204 194 194 182 186 184 191 196 199 208 235 241 241 247 285 318 328 352 353 357 359 5 8 8 6 8 360
196 205 214 232 259 270 258 251 242 245 252 244 247 245 245 235 228 238 321 319 270 212 241 270 246 199 173 173 169 167 154 146 141 162 21 295 265 239 226 221 222 253 55 63 345 340 344 0 13 19 25 32 32 30
213 209 218 245 258 253 243 216 235 242 207 199 198 170 154 168 113 62 41 31 90 147 178 173 163 159 164 174 216 244 249 251 257 174 144 150 134 132 154 159 148 145 157 310 325 15 8 18 30 45 60 76 82 81
Wind_Speed_850mb
55 54 57 58 60 63 64 64 63 57 49 64 69 64 43 26 16 25 24 22 25 16 41 31 22 23 24 17 5 15 18 2 6 6 4 5 5 4 7 3 8 9 11 10 8 8 7 44 12 5 13 23 31 34
53 55 58 59 60 63 66 67 66 62 51 60 67 65 44 28 18 21 29 20 22 27 49 62 59 31 34 29 25 9 8 16 8 5 3 6 6 3 7 4 3 4 3 3 7 3 15 27 9 10 20 29 36 40
53 57 60 59 58 62 66 69 70 68 51 58 63 61 47 27 20 21 23 23 27 26 43 17 18 21 13 12 16 12 8 7 6 9 6 5 7 7 6 4 5 2 1 5 6 10 16 15 21 28 32 32 40 42
57 57 61 62 57 59 67 70 71 68 50 61 62 59 47 30 22 23 22 17 19 15 8 15 28 34 18 19 15 25 16 20 23 17 5 5 6 7 4 5 4 4 9 7 4 13 28 13 37 43 54 43 47 49
58 57 57 61 58 60 66 70 72 69 55 66 63 57 44 28 24 24 25 12 14 9 8 23 31 27 33 29 27 21 24 22 3 5 4 5 6 7 4 3 1 2 5 4 4 8 8 34 42 51 45 54 53 56
60 55 57 58 59 59 64 68 76 74 63 68 66 53 38 31 23 18 6 2 8 15 8 8 16 15 36 25 22 15 11 13 5 6 7 10 7 6 7 5 2 13 16 13 11 25 36 50 59 50 43 54 52 53
64 58 58 57 58 53 62 67 77 80 66 70 64 49 33 18 14 6 6 13 15 2 5 10 14 11 27 20 14 12 8 4 6 5 6 6 8 11 5 9 17 28 29 35 33 36 26 17 30 56 49 48 50 48
61 58 56 54 57 55 59 69 76 78 68 69 56 43 21 6 4 6 5 17 5 3 3 3 9 13 16 9 9 15 6 2 1 6 5 6 12 6 5 23 41 41 46 45 28 25 39 46 56 63 48 44 48 46
61 60 57 53 54 58 56 65 73 71 72 63 48 21 4 1 1 9 20 5 6 6 3 4 5 7 18 4 7 8 8 2 6 4 3 8 1 4 15 37 47 53 38 52 51 48 47 46 54 58 48 41 41 45
60 63 59 55 50 53 54 63 63 64 68 51 21 9 3 4 24 12 5 4 8 7 8 6 7 6 5 5 5 10 4 4 5 4 14 3 2 22 40 57 47 54 57 54 46 47 44 46 48 53 47 40 41 44
55 60 57 50 47 50 52 52 58 65 59 45 21 9 14 20 9 5 6 7 7 6 11 11 15 7 5 4 1 2 3 5 4 6 8 6 8 21 53 63 71 67 66 59 52 60 52 54 54 54 48 40 41 42
51 55 53 52 48 45 47 42 54 61 56 48 33 33 17 3 4 5 4 3 7 4 6 5 3 9 4 2 1 2 1 3 2 8 3 5 9 51 55 57 66 71 63 60 51 47 39 48 54 51 48 44 43 42
52 52 52 44 41 37 39 40 51 58 61 29 5 6 5 4 3 7 5 3 4 5 6 2 5 4 3 4 4 1 1 2 6 1 3 5 35 49 59 59 65 60 66 65 67 46 36 30 38 39 44 42 37 41
42 45 49 40 35 34 27 44 51 54 42 7 4 8 7 6 8 8 7 5 8 13 13 11 3 4 4 4 2 3 2 1 3 2 1 6 37 44 54 56 56 53 63 59 65 58 43 19 18 28 33 34 30 37
43 45 47 40 22 25 41 45 49 44 11 9 7 9 12 15 13 9 14 10 15 17 11 3 2 3 2 3 1 3 3 2 1 3 4 22 37 35 47 57 57 49 54 59 52 62 52 37 15 16 15 23 28 35
39 45 38 30 38 42 40 48 44 21 9 12 15 8 12 6 11 12 16 19 13 10 3 2 1 3 2 2 4 5 4 5 3 5 19 29 27 29 40 50 54 56 53 54 55 61 59 47 34 28 20 17 24 31
36 39 41 49 55 49 38 42 20 13 12 11 14 26 21 13 14 14 21 17 10 7 4 4 3 2 3 3 4 6 8 6 12 18 24 23 22 22 33 41 45 51 54 60 59 64 66 60 45 38 34 31 29 25
37 40 40 40 46 42 29 10 11 12 15 25 12 16 29 31 28 33 39 36 18 11 11 7 10 7 6 5 5 7 19 20 20 21 25 29 20 20 26 33 38 42 47 41 46 52 55 71 72 55 41 38 33 30
40 45 43 37 39 26 10 8 11 10 19 17 26 32 31 28 35 37 36 35 27 18 8 12 7 8 7 12 13 14 18 16 14 22 29 21 12 18 23 29 34 40 42 39 31 40 40 51 64 64 52 35 36 35
38 34 31 27 23 8 9 11 11 13 10 9 16 16 14 21 29 31 29 34 33 13 11 10 12 16 21 34 28 21 17 14 12 16 18 11 13 18 20 27 35 37 42 47 40 35 37 45 53 58 58 53 44 43
46 27 30 18 18 20 13 10 14 14 14 13 16 9 10 17 20 25 29 28 18 14 8 24 32 46 45 36 26 24 21 15 13 11 13 16 18 15 16 26 34 32 34 39 45 42 38 43 47 47 48 54 45 40
37 30 37 29 13 13 19 22 17 11 12 14 11 14 13 11 16 14 14 18 17 32 36 36 42 43 47 38 33 31 22 15 12 12 9 14 17 17 16 23 31 33 30 28 36 38 35 35 43 43 43 43 54 49
30 31 22 16 13 14 16 17 13 11 8 6 4 5 6 8 8 7 7 11 13 32 41 48 46 42 35 30 27 33 27 19 11 8 3 9 15 17 16 17 23 31 33 30 31 33 33 31 35 40 40 45 42 46
26 12 11 13 23 10 10 10 14 9 8 5 5 6 6 8 3 6 7 10 29 37 38 32 28 25 24 24 34 39 32 23 17 9 1 10 15 14 16 18 19 25 30 28 24 27 31 30 31 34 26 37 42 46
11 15 13 16 15 11 10 7 8 6 9 11 7 6 5 5 3 5 8 17 20 27 26 20 23 26 25 30 40 38 34 21 13 11 5 10 12 11 14 18 17 22 28 29 26 25 28 29 29 30 30 31 32 36
12 19 19 15 8 12 10 6 9 11 6 9 11 5 2 3 4 9 2 19 19 22 19 17 25 32 33 27 40 36 32 28 25 18 4 3 6 13 16 17 16 20 27 30 32 30 29 27 27 25 26 26 25 29
12 14 18 20 11 7 8 13 10 6 6 9 4 4 3 4 9 1 2 31 29 27 22 17 14 16 23 31 29 24 27 30 25 15 6 2 4 8 12 14 16 17 18 22 28 30 32 32 27 21 20 23 25 27
22 11 17 20 17 17 7 4 4 7 8 8 6 11 9 8 4 2 4 20 36 33 13 3 5 12 19 16 28 29 31 30 24 20 14 6 3 4 7 7 6 8 13 23 25 27 30 27 25 24 20 21 23 23
19 19 17 11 14 14 18 14 13 18 14 13 8 7 7 8 7 16 21 30 34 35 28 9 10 13 18 26 24 27 29 31 31 27 19 12 8 4 4 4 6 8 11 12 17 27 29 27 25 23 22 19 19 20
18 25 19 19 18 20 33 31 23 26 26 23 26 28 27 29 31 29 30 25 31 38 32 22 19 22 24 25 26 32 35 35 31 22 16 13 11 8 6 3 2 3 8 14 19 20 20 22 24 23 20 20 17 15
12 32 20 26 30 51 50 48 48 42 33 30 32 33 35 27 25 22 23 24 25 22 26 13 12 18 20 23 25 29 28 24 21 17 14 11 8 8 10 8 6 6 9 9 8 11 13 15 16 18 17 14 10 13
23 29 21 14 14 23 30 25 24 30 35 38 42 36 29 20 15 4 11 13 7 11 9 8 11 12 17 19 21 21 19 17 12 4 2 5 6 5 4 4 4 1 2 2 7 11 12 12 12 13 13 11 7 3
20 22 25 23 15 13 21 19 9 9 12 8 14 11 9 14 8 5 8 7 4 6 13 20 23 21 19 14 10 9 8 8 6 2 6 5 4 4 5 6 6 4 1 3 2 4 6 8 8 10 11 13 14 13
Wind_Direction_850mb
342 345 344 344 346 348 349 350 349 343 337 346 346 344 340 330 309 299 293 290 268 267 279 277 276 268 271 258 252 318 322 47 299 320 285 327 261 337 290 35 155 166 165 192 201 222 224 360 11 60 358 329 335 333
341 345 344 342 343 344 346 347 347 347 336 342 344 344 337 332 305 283 285 294 285 265 268 290 297 299 279 268 265 239 264 310 286 319 312 305 308 286 295 208 328 153 275 169 229 52 347 346 310 356 340 335 338 329
331 336 341 339 340 342 341 342 343 344 340 339 342 341 334 323 323 279 288 285 287 284 301 299 308 308 308 239 236 236 232 245 271 333 317 305 337 327 337 45 303 274 71 272 245 48 337 331 31 360 346 336 337 335
326 329 334 337 337 342 343 341 341 342 340 340 338 338 332 315 310 309 292 279 265 271 288 283 329 331 319 322 288 241 258 280 286 310 280 276 270 197 305 310 333 288 317 319 294 7 334 252 338 341 337 336 337 339
317 323 330 336 334 335 342 342 341 341 337 341 336 335 326 311 302 310 309 272 255 271 292 295 320 351 347 331 295 277 263 263 295 292 275 291 288 296 276 209 21 320 333 347 336 322 244 285 304 324 327 330 333 336
312 319 324 329 333 333 338 341 340 339 334 339 335 333 323 307 295 315 299 172 335 249 301 303 313 316 7 7 16 36 202 229 202 203 273 292 283 288 313 311 114 342 326 339 283 289 275 277 292 304 312 321 324 330
307 315 320 322 328 332 336 338 338 338 338 338 334 333 326 304 276 267 284 306 331 278 265 295 305 321 359 11 30 25 77 165 203 235 221 281 306 336 281 288 337 330 327 316 301 300 291 295 293 304 313 316 317 323
305 309 315 320 322 327 332 334 336 336 338 337 331 333 329 311 250 236 287 308 269 184 203 277 283 314 351 342 352 351 344 177 20 322 323 331 307 295 285 317 313 316 316 308 299 285 287 293 291 293 301 313 314 322
305 308 311 315 321 324 330 333 336 336 339 339 330 331 314 140 18 282 303 262 199 230 234 212 280 302 345 350 347 336 342 315 344 6 316 318 290 337 278 291 294 296 291 294 298 289 286 285 283 286 292 301 304 310
298 302 308 309 317 322 328 332 335 336 340 343 340 336 231 266 314 300 200 207 216 224 219 247 217 273 309 315 37 349 17 14 360 26 312 287 302 311 329 321 318 325 323 306 285 284 280 278 277 280 283 291 293 298
303 303 305 308 313 315 325 334 335 338 346 352 335 278 266 298 285 226 225 207 179 229 212 231 214 277 250 289 11 59 332 347 10 15 344 333 319 334 338 343 340 335 335 336 318 288 279 269 270 273 280 280 283 288
301 301 304 310 311 311 318 327 333 337 340 324 303 294 307 296 202 234 230 215 215 277 216 225 224 227 247 184 223 194 241 221 158 327 278 346 308 333 338 339 350 348 345 349 344 328 291 277 260 264 271 277 279 281
293 302 307 314 317 309 315 318 326 329 332 322 311 292 277 242 249 218 220 217 255 211 241 261 331 187 192 187 217 215 166 222 336 50 11 278 323 334 340 343 348 349 355 355 354 354 326 289 251 250 265 272 278 283
299 298 303 314 318 313 309 319 325 325 331 285 242 277 213 220 235 200 192 203 235 244 280 297 251 226 174 193 195 248 96 173 88 41 8 278 332 338 340 344 350 347 354 349 353 356 4 330 270 255 261 270 277 280
296 294 295 318 309 310 316 313 318 318 270 243 205 236 231 239 261 248 225 253 259 281 280 268 166 233 163 192 189 258 207 92 230 219 237 313 331 342 343 345 345 344 348 353 353 0 4 12 338 295 293 280 282 282
309 308 307 307 306 313 316 312 316 303 232 223 232 248 230 253 256 228 226 248 274 254 211 124 161 241 222 209 193 183 176 230 235 219 287 317 329 347 354 359 358 358 0 357 4 8 10 9 5 2 344 309 290 291
311 301 315 307 310 320 314 305 290 218 227 226 238 229 238 266 257 263 236 244 242 205 217 162 246 270 123 248 223 192 213 220 249 295 317 326 332 350 359 2 8 11 8 11 12 11 18 23 19 9 359 339 323 327
298 308 311 320 324 327 318 252 234 235 240 237 236 235 234 244 250 262 263 260 253 203 171 207 139 183 216 225 232 222 234 259 286 304 321 330 328 353 9 9 9 15 16 13 20 14 22 29 27 18 360 353 343 330
298 298 305 314 307 308 288 249 233 263 245 258 255 256 257 263 265 267 265 263 242 220 189 174 204 197 209 210 232 246 256 262 283 304 317 328 326 347 2 14 14 15 20 25 21 19 16 21 31 26 21 8 7 359
299 308 314 305 284 239 264 261 235 255 261 256 258 253 238 252 272 271 266 251 237 201 198 209 215 225 220 251 254 246 249 270 285 305 317 331 334 338 348 5 12 11 11 17 19 17 17 21 21 26 27 28 23 17
311 309 326 308 258 227 254 263 246 245 271 259 266 260 261 254 256 257 257 244 194 215 231 232 236 242 249 255 248 226 231 251 274 276 305 323 338 333 337 351 359 7 8 13 15 15 14 18 16 19 21 19 11 7
290 302 307 303 243 224 253 236 236 291 265 261 273 253 254 250 256 251 245 198 234 238 231 240 244 252 250 249 245 222 221 232 256 257 265 329 345 339 329 346 355 0 3 6 14 14 10 18 20 20 21 19 24 26
281 286 281 232 225 229 254 227 227 224 241 244 240 235 226 231 230 209 231 229 252 257 247 247 255 252 252 254 227 208 210 216 217 196 192 353 352 351 346 344 353 356 359 358 2 11 15 19 19 24 25 24 23 22
264 241 233 222 206 253 244 236 216 242 241 240 228 246 221 227 222 232 242 255 268 272 269 253 237 241 234 217 201 202 201 199 172 173 255 346 351 345 348 351 351 359 3 356 358 7 10 13 14 22 21 17 25 27
234 225 215 230 219 227 224 234 215 217 239 204 229 249 231 187 227 247 261 279 282 279 267 260 255 252 234 224 207 200 201 184 168 205 235 358 360 4 6 17 11 6 14 14 16 14 15 17 23 30 25 28 25 25
236 213 203 206 212 211 218 236 215 224 213 205 228 240 176 172 231 249 274 345 332 345 339 295 265 244 224 226 201 192 195 185 192 191 190 359 22 15 22 33 40 36 31 33 30 22 17 16 24 25 20 19 22 29
223 235 218 224 225 225 252 254 257 271 246 217 198 177 152 221 242 241 46 13 357 333 331 312 266 232 215 186 193 180 175 177 183 194 199 229 355 29 42 57 59 52 30 22 17 16 15 13 10 14 4 357 4 19
223 228 209 219 207 215 240 256 246 236 231 210 186 189 185 218 259 266 341 355 357 348 349 54 128 164 189 202 180 178 176 183 192 193 186 189 314 349 5 17 52 27 5 1 14 18 14 8 4 7 0 4 11 17
217 214 204 227 219 215 218 223 234 233 231 198 208 207 230 227 257 316 320 303 303 325 329 278 216 203 192 192 203 198 200 199 194 188 193 194 205 247 293 288 312 335 349 10 6 359 2 4 7 5 2 359 10 18
223 199 209 226 232 240 237 232 246 256 255 249 271 265 265 269 269 273 285 295 301 293 310 287 265 218 200 199 202 197 196 197 199 203 209 204 203 224 238 230 269 333 351 349 347 358 10 11 11 10 8 6 2 13
194 191 221 240 251 254 257 258 258 264 262 255 247 249 257 264 264 270 279 276 280 266 287 294 258 237 226 204 194 194 182 186 184 191 196 199 208 235 241 241 247 285 318 328 352 353 357 359 5 8 8 6 8 360
196 205 214 232 259 270 258 251 242 245 252 244 247 245 245 235 228 238 321 319 270 212 241 270 246 199 173 173 169 167 154 146 141 162 21 295 265 239 226 221 222 253 55 63 345 340 344 0 13 19 25 32 32 30
213 209 218 245 258 253 243 216 235 242 207 199 198 170 154 168 113 62 41 31 90 147 178 173 163 159 164 174 216 244 249 251 257 174 144 150 134 132 154 159 148 145 157 310 325 15 8 18 30 45 60 76 82 81